Date String (YYYY-MM-DD hh:mm:ss) UTC,Instrument flags,Ambient pressure (hPa),Sample flow (lpm),Bypass flow (lpm),Sample temperature (°C),Ambient temperature (°C),ASC tube jacket temperature (°C),LED temperature (°C),Box temperature (°C),Sample RH (%),Span deviation,Mass concentration (μg/m³),Mass concentration (μg/m³),Mass concentration (μg/m³)
DateTimeUTC,F1_M11,P_M11,Q1_M11,Q2_M11,T1_M11,T2_M11,T3_M11,T4_M11,T5_M11,U1_M11,ZSPAN_M11,X0_M11,X2_M11,X1_M11
2023-01-01 21:00:00,,0818.1,5.01,0.00,25.1,23.8,00.0,33.8,26.8,13.3,-002.3,0021.48,0017.02,0016.72
2023-01-01 21:01:00,,0818.2,5.00,0.00,25.1,23.8,00.0,33.8,26.8,13.2,-002.2,0021.72,0017.06,0016.75
2023-01-01 21:02:00,,0818.2,5.00,0.00,25.1,23.8,00.0,33.8,26.8,13.3,-002.4,0021.81,0017.09,0016.78
2023-01-01 21:03:00,,0818.2,5.02,0.00,25.1,23.9,00.0,33.8,26.8,13.3,-002.3,0021.89,0017.14,0016.82
2023-01-01 21:04:00,,0818.1,5.00,0.00,25.1,23.9,00.0,33.8,26.9,13.3,-002.3,0021.95,0017.27,0016.93
2023-01-01 21:05:00,,0818.1,5.01,0.00,25.1,23.9,00.0,33.9,26.9,13.3,-002.3,0022.06,0017.39,0017.05
2023-01-01 21:06:00,,0818.1,5.00,0.00,25.1,23.9,00.0,33.9,26.8,13.2,-002.1,0022.18,0017.45,0017.12
2023-01-01 21:07:00,,0818.2,5.00,0.00,25.1,23.9,00.0,33.9,26.9,13.2,-002.1,0022.43,0017.50,0017.18
2023-01-01 21:08:00,,0818.2,5.01,0.00,25.1,23.9,00.0,33.9,26.9,13.3,-002.0,0021.92,0017.63,0017.29
2023-01-01 21:09:00,,0818.2,5.00,0.00,25.1,23.9,00.0,33.9,26.9,13.4,-002.1,0021.98,0017.77,0017.42
2023-01-01 21:10:00,,0818.2,4.99,0.00,25.1,23.9,00.0,33.9,26.9,13.4,-002.1,0022.17,0017.91,0017.54
2023-01-01 21:11:00,,0818.2,4.99,0.00,25.2,23.9,00.0,33.9,26.9,13.4,-001.5,0022.30,0018.05,0017.66
2023-01-01 21:12:00,,0818.2,5.00,0.00,25.2,23.9,00.0,33.9,26.9,13.3,-001.3,0022.16,0018.17,0017.79
2023-01-01 21:13:00,,0818.2,5.00,0.00,25.2,23.9,00.0,33.9,26.9,13.3,-000.9,0022.10,0018.21,0017.85
2023-01-01 21:14:00,,0818.3,5.00,0.00,25.2,23.9,00.0,33.9,26.9,13.3,-000.9,0021.95,0018.13,0017.79
2023-01-01 21:15:00,,0818.3,5.00,0.00,25.2,23.9,00.0,33.9,26.9,13.3,-000.8,0021.80,0018.04,0017.70
2023-01-01 21:16:00,,0818.4,5.01,0.00,25.2,23.9,00.0,33.9,26.9,13.3,-000.7,0021.63,0017.93,0017.61
2023-01-01 21:17:00,,0818.4,5.01,0.00,25.2,23.9,00.0,33.9,27.0,13.3,-000.8,0021.54,0017.85,0017.50
2023-01-01 21:18:00,,0818.4,5.00,0.00,25.2,23.9,00.0,34.0,27.0,13.2,-000.9,0021.14,0017.77,0017.42
2023-01-01 21:19:00,,0818.4,5.00,0.00,25.2,23.9,00.0,34.0,27.0,13.2,-000.9,0020.99,0017.66,0017.30
2023-01-01 21:20:00,,0818.3,5.00,0.00,25.2,23.9,00.0,34.0,26.9,13.2,-001.2,0020.77,0017.53,0017.18
2023-01-01 21:21:00,,0818.3,5.00,0.00,25.2,23.9,00.0,34.0,26.9,13.2,-000.9,0020.64,0017.40,0017.06
2023-01-01 21:22:00,,0818.2,5.00,0.00,25.2,23.9,00.0,34.0,27.0,13.2,-001.1,0020.45,0017.29,0016.97
2023-01-01 21:23:00,,0818.2,5.00,0.00,25.2,24.0,00.0,34.0,27.0,13.2,-001.2,0020.33,0017.18,0016.87
2023-01-01 21:24:00,,0818.2,4.99,0.00,25.2,24.0,00.0,34.0,27.0,13.2,-001.4,0020.24,0017.11,0016.78
2023-01-01 21:25:00,,0818.3,5.00,0.00,25.2,24.0,00.0,34.0,27.0,13.2,-001.4,0020.32,0017.09,0016.74
2023-01-01 21:26:00,,0818.3,5.00,0.00,25.2,24.0,00.0,34.0,27.0,13.2,-001.4,0020.46,0017.05,0016.69
2023-01-01 21:27:00,,0818.3,5.00,0.00,25.3,24.0,00.0,34.0,27.0,13.1,-001.2,0020.58,0017.03,0016.65
2023-01-01 21:28:00,,0818.4,5.00,0.00,25.3,24.0,00.0,34.0,27.0,13.1,-001.1,0020.58,0017.01,0016.62
2023-01-01 21:29:00,,0818.4,4.99,0.00,25.3,24.0,00.0,34.0,27.0,13.1,-001.0,0020.54,0016.96,0016.56
2023-01-01 21:30:00,,0818.3,4.99,0.00,25.3,24.0,00.0,34.0,27.0,13.1,-000.9,0020.41,0016.87,0016.51
2023-01-01 21:31:00,,0818.4,5.01,0.00,25.3,24.0,00.0,34.0,27.0,13.1,-000.6,0020.47,0016.83,0016.46
2023-01-01 21:32:00,,0818.3,5.00,0.00,25.3,24.0,00.0,34.1,27.0,13.1,-000.7,0020.37,0016.79,0016.43
2023-01-01 21:33:00,,0818.4,5.01,0.00,25.3,24.0,00.0,34.1,27.0,13.1,-000.9,0020.34,0016.72,0016.34
2023-01-01 21:34:00,,0818.4,5.00,0.00,25.3,24.0,00.0,34.1,27.0,13.2,-001.1,0020.32,0016.69,0016.31
2023-01-01 21:35:00,,0818.4,5.00,0.00,25.3,24.0,00.0,34.1,27.0,13.2,-001.1,0020.30,0016.66,0016.27
2023-01-01 21:36:00,,0818.4,5.00,0.00,25.3,24.0,00.0,34.1,27.0,13.2,-000.9,0020.22,0016.67,0016.29
2023-01-01 21:37:00,,0818.4,4.99,0.00,25.3,24.0,00.0,34.1,27.1,13.2,-000.7,0020.05,0016.69,0016.31
2023-01-01 21:38:00,,0818.4,5.00,0.00,25.3,24.0,00.0,34.1,27.1,13.3,-001.2,0020.11,0016.76,0016.35
2023-01-01 21:39:00,,0818.4,5.00,0.00,25.3,24.0,00.0,34.1,27.0,13.3,-001.2,0020.21,0016.83,0016.41
2023-01-01 21:40:00,,0818.4,5.00,0.00,25.3,24.0,00.0,34.1,27.1,13.2,-001.4,0020.25,0016.89,0016.46
2023-01-01 21:41:00,,0818.4,5.00,0.00,25.3,24.0,00.0,34.1,27.0,13.3,-001.5,0020.23,0016.90,0016.48
2023-01-01 21:42:00,,0818.4,5.00,0.00,25.3,24.0,00.0,34.1,27.0,13.3,-001.7,0020.12,0016.89,0016.48
2023-01-01 21:43:00,,0818.4,5.00,0.00,25.3,24.0,00.0,34.1,27.0,13.3,-001.6,0020.34,0016.90,0016.49
2023-01-01 21:44:00,,0818.4,5.00,0.00,25.3,24.0,00.0,34.1,27.0,13.4,-001.3,0021.00,0016.94,0016.52
2023-01-01 21:45:00,,0818.4,4.99,0.00,25.3,24.0,00.0,34.1,27.0,13.3,-001.4,0021.03,0016.97,0016.56
2023-01-01 21:46:00,,0818.5,5.00,0.00,25.3,24.0,00.0,34.1,27.0,13.3,-001.3,0021.12,0017.02,0016.63
2023-01-01 21:47:00,,0818.5,5.00,0.00,25.3,24.0,00.0,34.1,27.0,13.3,-001.7,0021.29,0017.09,0016.71
2023-01-01 21:48:00,,0818.5,5.01,0.00,25.3,24.0,00.0,34.1,27.0,13.4,-001.6,0021.42,0017.18,0016.80
2023-01-01 21:49:00,,0818.5,5.01,0.00,25.3,24.0,00.0,34.1,27.1,13.4,-001.4,0021.33,0017.19,0016.86
2023-01-01 21:50:00,,0818.6,4.99,0.00,25.3,24.0,00.0,34.1,27.1,13.4,-001.5,0021.31,0017.22,0016.91
2023-01-01 21:51:00,,0818.6,5.01,0.00,25.3,24.0,00.0,34.1,27.1,13.4,-001.8,0021.32,0017.25,0016.96
2023-01-01 21:52:00,,0818.6,5.00,0.00,25.4,24.0,00.0,34.1,27.1,13.4,-001.7,0021.34,0017.27,0016.99
2023-01-01 21:53:00,,0818.6,5.00,0.00,25.3,24.0,00.0,34.1,27.1,13.4,-001.4,0021.44,0017.32,0017.02
2023-01-01 21:54:00,,0818.5,4.99,0.00,25.4,24.0,00.0,34.1,27.1,13.4,-001.5,0021.34,0017.36,0017.04
2023-01-01 21:55:00,,0818.5,5.00,0.00,25.4,24.0,00.0,34.2,27.1,13.3,-001.6,0020.71,0017.38,0017.09
2023-01-01 21:56:00,,0818.5,5.00,0.00,25.4,24.0,00.0,34.2,27.1,13.3,-001.5,0020.63,0017.32,0017.04
2023-01-01 21:57:00,,0818.4,5.00,0.00,25.4,24.0,00.0,34.2,27.1,13.3,-001.4,0020.57,0017.25,0016.97
2023-01-01 21:58:00,,0818.4,5.01,0.00,25.4,24.0,00.0,34.2,27.1,13.3,-001.4,0020.52,0017.23,0016.92
2023-01-01 21:59:00,,0818.5,5.00,0.00,25.4,24.0,00.0,34.2,27.1,13.3,-001.6,0020.52,0017.20,0016.86
